This demonstration page uses our WeatherBlox Daily Observations layout. Learn more.

Left ArrowRight Arrow

Hourly Observations for June 12, 2016

Temp ( °F °C ) Dew Point ( °F °C ) Humidity (%) Winds ( mph kmh ) Pressure ( in mb ) Visibility ( mi km ) Precip ( " mm )
12:52 am 00:52 Clear 75 23.9 68 20 79 79 SSE 8 13 30.04 1017 10 16 0.00 0.00
1:52 am 01:52 Clear 75 23.9 68 20 79 79 SSE 8 13 30.04 1017 10 16 0.00 0.00
2:52 am 02:52 Clear 74 23.3 68 20 82 82 SSE 8 13 30.04 1017 10 16 0.00 0.00
3:52 am 03:52 Clear 73 22.8 68 20 84 84 SSE 8 13 30.04 1017 9 14 0.00 0.00
4:52 am 04:52 Clear 73 22.8 68 20 84 84 SSE 7 11 30.04 1017 9 14 0.00 0.00
5:52 am 05:52 Clear 72 22.2 68 20 87 87 SSE 6 9 30.05 1018 8 13 0.00 0.00
6:52 am 06:52 Sunny 74 23.3 69 20.6 85 85 SE 6 9 30.05 1018 8 13 0.00 0.00
7:52 am 07:52 Sunny 78 25.6 70 21.1 76 76 S 7 11 30.06 1018 10 16 0.00 0.00
8:52 am 08:52 Sunny 81 27.2 70 21.1 69 69 S 8 13 30.07 1018 10 16 0.00 0.00
9:52 am 09:52 Sunny 84 28.9 70 21.1 63 63 Calm 30.08 1019 10 16 0.00 0.00
10:52 am 10:52 Mostly Sunny 86 30 71 21.7 61 61 Calm 30.07 1018 10 16 0.00 0.00
11:52 am 11:52 Mostly Cloudy 87 30.6 69 20.6 55 55 S 6 9 30.05 1018 10 16 0.00 0.00
12:52 pm 12:52 Mostly Cloudy 87 30.6 69 20.6 55 55 S 8 13 30.06 1018 10 16 0.00 0.00
1:52 pm 13:52 Partly Cloudy 87 30.6 71 21.7 59 59 Calm 30.04 1017 10 16 0.01 0.25
2:25 pm 14:25 Partly Cloudy with Nearby Thunderstorms 90 32.2 69 20.6 50 50 SE 10 17 29.97 1015 10 16 0.00 0.00
2:42 pm 14:42 Windy with Storms Likely 81 27 68 20 66 66 W 20 31 30.03 1017 10 16 0.00 0.00
2:52 pm 14:52 Cloudy with Thunderstorms 78 25.6 68 20 71 71 WSW 14 22 30.05 1018 10 16 0.00 0.03
3:16 pm 15:16 Cloudy with Thunderstorms 73 23 66 19 78 78 WSW 13 20 30.09 1019 2 2 0.00 0.00
3:24 pm 15:24 Cloudy with Strong Thunderstorms 72 22 66 19 83 83 W 20 31 30.09 1019 1 1 0.00 0.00
3:37 pm 15:37 Cloudy with Thunderstorms 71 21.7 67 19.4 87 87 NW 14 22 30.12 1020 2 3 0.47 11.94
3:39 pm 15:39 Cloudy with Thunderstorms 71 21.7 67 19.4 87 87 NW 13 20 30.12 1020 3 5 0.47 11.94
3:52 pm 15:52 Cloudy with Thunderstorms 70 21.1 67 19.4 90 90 WNW 9 15 30.11 1020 10 16 0.47 11.94
4:05 pm 16:05 Cloudy with Nearby Thunderstorms 72 22.2 66 18.9 82 82 W 10 17 30.09 1019 10 16 0.00 0.03
4:16 pm 16:16 Cloudy with Light Rain 72 22 66 19 83 83 WSW 7 11 30.09 1019 10 16 0.00 0.00
4:52 pm 16:52 Mostly Cloudy with Light Rain 73 22.8 67 19.4 81 81 Calm 30.04 1017 10 16 0.00 0.03
5:52 pm 17:52 Sunny 73 23 68 20 83 83 E 12 19 29.97 1015 8 13 0.00 0.00
6:52 pm 18:52 Sunny 75 23.9 69 20.6 82 82 SSW 7 11 30.00 1016 10 16 0.00 0.00
7:52 pm 19:52 Sunny 76 24.4 69 20.6 79 79 ESE 7 11 30.01 1016 10 16 0.00 0.00
8:52 pm 20:52 Clear 73 22.8 66 18.9 79 79 S 8 13 30.00 1016 10 16 0.00 0.00
9:52 pm 21:52 Clear 71 21.7 67 19.4 87 87 S 5 7 30.01 1016 10 16 0.00 0.00
10:52 pm 22:52 Clear 70 21.1 67 19.4 90 90 S 8 13 30.02 1017 10 16 0.00 0.00
11:52 pm 23:52 Clear 70 21.1 67 19.4 90 90 S 10 17 30.03 1017 10 16 0.00 0.00

Powered by AerisWeather